FW5398 Weather Reports


Display with metric or nautical units.
time (UTC)temp
F
wind
direction
speed
MPH
gust
MPH
rain 1hr
in
rain 24hr
in
rain mn
in
humidity
%
barometer
mb
20260504120107 34 264 20.0 28.0 0.02 0.42 0.19 85 990.3
20260504081557 36 262 13.0 20.0 0.05 0.38 0.15 85 977.7
20260504050025 40 344 0.0 2.0 0.00 0.23 0.00 83 975.2
20260504044522 40 344 1.0 4.0 0.00 0.23 0.00 82 975.5
20260504043021 40 347 1.0 4.0 0.00 0.23 0.00 82 975.8
20260504041518 40 18 2.0 3.0 0.00 0.23 0.00 82 976.0
20260504040016 40 220 2.0 8.0 0.00 0.23 0.00 82 976.4
20260504034513 41 145 3.0 17.0 0.00 0.23 0.00 81 976.5
20260504033012 41 163 6.0 17.0 0.00 0.23 0.00 82 977.0
20260504031512 42 155 7.0 17.0 0.00 0.23 0.00 81 977.4
20260504030006 42 170 2.0 16.0 0.00 0.23 0.00 81 977.9
20260504024504 42 129 5.0 17.0 0.00 0.23 0.23 81 978.2
20260504023004 42 16 5.0 14.0 0.00 0.23 0.23 81 977.9
20260504021600 42 122 5.0 20.0 0.00 0.23 0.23 81 978.7
20260504020106 42 121 6.0 23.0 0.00 0.23 0.23 81 979.5
20260504014605 42 218 10.0 25.0 0.00 0.23 0.23 81 979.4
20260504013056 42 345 6.0 30.0 0.00 0.23 0.23 80 979.4
20260504011552 42 106 7.0 31.0 0.00 0.23 0.23 81 980.7
20260504010057 42 45 14.0 33.0 0.00 0.23 0.23 81 981.2
20260504004548 43 209 9.0 36.0 0.00 0.23 0.23 80 982.4
20260504003045 43 172 12.0 34.0 0.01 0.23 0.23 81 982.3
20260504001543 42 351 13.0 31.0 0.02 0.23 0.23 82 983.0
20260504000139 42 110 10.0 26.0 0.02 0.23 0.23 82 984.3
20260503234539 41 74 15.0 30.0 0.02 0.23 0.23 82 985.5
20260503233031 41 101 7.0 28.0 0.02 0.22 0.22 82 986.9
20260503231529 41 55 7.0 18.0 0.03 0.21 0.21 83 988.0
20260503230034 40 24 5.0 19.0 0.07 0.21 0.21 83 989.5
20260503224521 39 110 7.0 16.0 0.09 0.21 0.21 84 991.0
20260503223019 39 342 5.0 16.0 0.09 0.20 0.20 84 992.0
20260503221517 39 35 5.0 11.0 0.08 0.18 0.18 83 992.9
20260503220021 39 36 5.0 10.0 0.05 0.14 0.14 83 993.5
20260503214514 39 42 2.0 8.0 0.04 0.12 0.12 82 994.2
20260503213004 40 70 3.0 9.0 0.03 0.11 0.11 82 994.5
20260503211504 41 10 5.0 0.0 0.00 0.00 0.10 83 994.4
20260503210001 41 353 3.0 11.0 0.04 0.09 0.09 83 995.4
20260503204601 41 31 4.0 19.0 0.05 0.08 0.08 82 995.5
20260503203058 41 31 9.0 15.0 0.06 0.08 0.08 82 996.3
20260503201553 42 121 7.0 13.0 0.05 0.06 0.06 81 997.2
20260503200050 42 20 3.0 11.0 0.05 0.05 0.05 80 998.6
20260503194601 42 345 5.0 13.0 0.03 0.03 0.03 79 998.8
20260503193044 43 10 4.0 15.0 0.02 0.02 0.02 83 999.5
20260503191540 44 142 1.0 11.0 0.01 0.01 0.01 99 1000.9
20260503190042 46 159 2.0 10.0 0.00 0.00 0.00 100 1002.0
20260503184534 47 119 5.0 17.0 0.00 0.00 0.00 100 1002.9
20260503183038 48 31 5.0 11.0 0.00 0.00 0.00 100 1003.3
20260503181546 49 311 1.0 15.0 0.00 0.00 0.00 100 1004.4
20260503180040 50 114 8.0 12.0 0.00 0.00 0.00 98 1005.1
20260503174525 51 110 4.0 12.0 0.00 0.00 0.00 96 1005.1
20260503173023 51 112 5.0 10.0 0.00 0.00 0.00 95 1005.2
20260503171524 51 101 5.0 8.0 0.00 0.00 0.00 95 1006.2